Regional Weather Roundup
Issued by NWS

Home | Current Version | Previous Version | Text Only | Print | Product List | Glossary Off
Versions: 1 2 3 4 5 6 7 8 9 10 11 12 13 14 15 16 17 18 19 20 21 22 23 24 25 26 27 28 29 30 31 32 33 34 35 36 37 38 39 40 41 42 43 44 45 46 47 48 49 50

000
ASUS43 KIND 010109
RWRIN

WEATHER ROUNDUP FOR INDIANA
NATIONAL WEATHER SERVICE INDIANAPOLIS IN
800 PM EST SAT JAN 31 2015

NOTE: "FAIR" INDICATES FEW OR NO CLOUDS BELOW 12,000 FEET WITH NO
SIGNIFICANT WEATHER AND/OR OBSTRUCTIONS TO VISIBILITY.

* - STATION DOES NOT REPORT WEATHER SUCH AS PRECIPITATION OR FOG.

+ - STATION NOT QUALITY CONTROLLED BY THE NATIONAL WEATHER SERVICE.
    USE DATA WITH CAUTION...ESPECIALLY DEWPOINT AND RELATIVE
    HUMIDITY OBSERVATIONS.

INZ001>003-010>013-019-020-010200-
NORTHWEST INDIANA

CITY           SKY/WX    TMP DP  RH WIND       PRES   REMARKS
GARY /AIRPORT/ CLOUDY    37  28  70 SW6       30.19S
KNOX *+        CLOUDY    34  28  80 SW6       30.18S WCI  29
LA PORTE +     CLOUDY    36  32  85 SW7       30.18F
MICHIGAN CITY+ CLOUDY    34  27  75 SW5       30.19S WCI  30
MONTICELLO +   LGT RAIN  34  31  87 SW8       30.20F WCI  27
RENSSELAER +   DRIZZLE   34  34 100 SW9       30.20S WCI  26
VALPARAISO     CLOUDY    33  32  96 SW7       30.18F FOG     WCI  27

$$

LMZ046-743>745-010200-
SOUTHERN LAKE MICHIGAN

STATION/POSITION TIME  TEMP WIND        PRES
                       AIR  DIR/SP/G
                 (UTC) (F)  (DEG/KT/KT) (MB)
MICHIGAN CITY    0100   34  230/  1/  2   N/A

$$

INZ004-005-014>016-021>024-010200-
NORTH CENTRAL INDIANA

CITY           SKY/WX    TMP DP  RH WIND       PRES   REMARKS
GOSHEN         CLOUDY    34  28  79 SW7       30.18S WCI  28
LOGANSPORT +   FLURRIES  32  30  93 SW8       30.21S WCI  25
PERU/GRISSOM   FLURRIES  35  29  80 SW12      30.20S WCI  26
ROCHESTER +    CLOUDY    36  32  87 W7        30.19F
SOUTH BEND     CLOUDY    35  28  75 SW5       30.18S WCI  31
WARSAW +       CLOUDY    34  28  80 SW3       30.19S

$$

INZ006>009-017-018-025>027-010200-
NORTHEAST INDIANA

CITY           SKY/WX    TMP DP  RH WIND       PRES   REMARKS
ANGOLA *+      CLOUDY    34  27  75 SW3       30.17S
AUBURN +       CLOUDY    34  27  75 SW3       30.19F
FORT WAYNE     CLOUDY    34  28  79 SW8       30.20F WCI  27
HUNTINGTON +   CLOUDY    35  24  65 SW7       30.20S WCI  29

$$

INZ028-029-035-036-043>045-051>053-010200-
WEST CENTRAL INDIANA

CITY           SKY/WX    TMP DP  RH WIND       PRES   REMARKS
CRAWFORDSVL +  LGT SNOW  31  27  85 S7        30.24S WCI  24
GREENCASTLE +  LGT SNOW  32  27  80 S5        30.26S WCI  27
LAFAYETTE      LGT SNOW  32  31  96 SW7       30.23S FOG     WCI  26
TERRE HAUTE    LGT RAIN  34  30  85 SE5       30.25F WCI  30

$$

INZ030>032-037>040-046>048-054>057-064-065-010200-
CENTRAL INDIANA

CITY           SKY/WX    TMP DP  RH WIND       PRES   REMARKS
CP ATTERBURY + CLOUDY    36  25  64 SW3       30.28R
COLUMBUS       CLOUDY    36  21  55 SW7       30.28R
FRANKFORT +    LGT SNOW  34  31  90 SW8       30.24S WCI  27
GREENWOOD *+   CLOUDY    34  27  75 SW3       30.26S
INDIANAPOLIS   LGT SNOW  30  29  96 SW9       30.25S FOG     WCI  22
-EAGLE CREEK   LGT SNOW  32  30  92 SW8       30.24S FOG     WCI  25
KOKOMO *+      CLOUDY    36  27  69 SW9       30.21F
MARION +       CLOUDY    34  27  74 W7        30.22S WCI  28
MT COMFORT *+  CLOUDY    34  25  69 SW7       30.25R WCI  28
SHELBYVILLE    FLURRIES  35  28  75 SW8       30.25S WCI  29
ZIONSVILLE +   LGT SNOW  35  28  76 SW9       30.24R WCI  27

$$

INZ033-034-041-042-049-050-058-059-010200-
EAST CENTRAL INDIANA

CITY           SKY/WX    TMP DP  RH WIND       PRES   REMARKS
MUNCIE         CLOUDY    36  24  62 SW8       30.22S

$$

INZ060-061-067>069-081>083-085>088-010200-
SOUTHWEST INDIANA

CITY           SKY/WX    TMP DP  RH WIND       PRES   REMARKS
EVANSVILLE     CLOUDY    40  25  55 E3        30.27F
HUNTINGBURG *+ CLOUDY    37  25  60 SW6       30.28S
WASHINGTON +   CLOUDY    37  25  62 SW7       30.26R

$$

INZ062-063-066-070>080-084-089>092-010200-
SOUTH CENTRAL AND SOUTHEAST INDIANA

CITY           SKY/WX    TMP DP  RH WIND       PRES   REMARKS
BLOOMINGTON    CLOUDY    36  26  67 CALM      30.26R
NORTH VERNON + CLOUDY    37  23  56 S5        30.28S
SEYMOUR +      CLOUDY    37  25  60 S5        30.29R

$$




USA.gov is the U.S. government's official web portal to all federal, state and local government web resources and services.